Weather History for Hawthorne, CA

Change the Weather History Date:

Sunday, May 11, 2014

  Actual Average Record
Temperature  
Mean Temperature 71 °F -  
Max Temperature 82 °F 69 °F 85 °F (1953)
Min Temperature 61 °F 56 °F 49 °F (1980)
Cooling Degree Days 6    
Growing Degree Days 21 (Base 50)    
Moisture  
Dew Point 32 °F    
Average Humidity 29    
Maximum Humidity 67    
Minimum Humidity 4    
Precipitation  
Precipitation 0.00 in - - ()
Sea Level Pressure  
Sea Level Pressure 29.89 in    
Wind  
Wind Speed 7 mph (West)    
Max Wind Speed 17 mph    
Max Gust Speed 28 mph    
Visibility 10 miles    
Events      
Averages and records for this station are not official NWS values.
T = Trace of Precipitation, MM = Missing Value Source: NWS Daily Summary

Daily Weather History Graph

Daily Weather History Graph

Search for Another Location

Airport:

Trip Planner

Search our weather history database for the weather conditions in past years. The results will help you decide how hot, cold, wet, or windy it might be!

Date:

Astronomy

May. 11, 2014 Rise Set
Actual Time 5:55 AM PDT 7:44 PM PDT
Civil Twilight 5:27 AM PDT 8:12 PM PDT
Nautical Twilight 4:54 AM PDT 8:45 PM PDT
Astronomical Twilight 4:19 AM PDT 9:20 PM PDT
Moon 4:53 PM PDT (5/11) 3:53 AM PDT (5/11)
Length of Visible Light 14h 44m
Length of Day
13h 49m
Waxing Gibbous, 90% of the Moon is Illuminated
May 11
Waxing Gibbous
May 14
Full
May 21
Last Quarter
May 28
New
Jun 5
First Quarter

Hourly Weather History & Observations

Time (PDT) Temp. Dew Point Humidity Pressure Visibility Wind Dir Wind Speed Gust Speed Precip Events Conditions
12:53 AM 61.0 °F 50.0 °F 67% 29.85 in 10.0 mi SSW 4.6 mph - N/A   Clear
1:53 AM 66.9 °F 28.9 °F 24% 29.83 in 10.0 mi NW 9.2 mph 21.9 mph N/A   Clear
2:53 AM 66.9 °F 28.0 °F 23% 29.83 in 10.0 mi NNW 10.4 mph 17.3 mph N/A   Clear
3:53 AM 66.0 °F 28.0 °F 24% 29.83 in 10.0 mi Variable 3.5 mph - N/A   Unknown
4:53 AM 66.0 °F 27.0 °F 23% 29.85 in 10.0 mi NW 4.6 mph - N/A   Clear
5:53 AM 64.9 °F 27.0 °F 24% 29.88 in 10.0 mi Variable 3.5 mph - N/A   Clear
6:53 AM 64.9 °F 28.9 °F 26% 29.90 in 10.0 mi North 5.8 mph - N/A   Clear
7:53 AM 68.0 °F 28.0 °F 22% 29.92 in 10.0 mi Variable 4.6 mph - N/A   Clear
8:53 AM 70.0 °F 21.9 °F 16% 29.92 in 10.0 mi Calm Calm - N/A   Clear
9:53 AM 72.0 °F 18.0 °F 13% 29.91 in 10.0 mi Variable 3.5 mph - N/A   Clear
11:53 AM 81.0 °F -6.0 °F 4% 29.90 in 10.0 mi North 9.2 mph 24.2 mph N/A   Clear
12:53 PM 79.0 °F 25.0 °F 14% 29.88 in 10.0 mi SSE 11.5 mph - N/A   Clear
1:53 PM 75.9 °F 34.0 °F 22% 29.89 in 10.0 mi SW 13.8 mph 21.9 mph N/A   Clear
2:53 PM 73.9 °F 37.9 °F 27% 29.89 in 10.0 mi WSW 16.1 mph 27.6 mph N/A   Clear
3:53 PM 73.0 °F 37.0 °F 27% 29.88 in 10.0 mi West 17.3 mph 24.2 mph N/A   Clear
4:53 PM 73.9 °F 33.1 °F 22% 29.88 in 10.0 mi West 15.0 mph 24.2 mph N/A   Clear
5:53 PM 73.0 °F 30.9 °F 21% 29.87 in 10.0 mi West 17.3 mph 24.2 mph N/A   Clear
6:53 PM 71.1 °F 36.0 °F 28% 29.88 in 10.0 mi West 10.4 mph 20.7 mph N/A   Clear
7:53 PM 70.0 °F 35.1 °F 28% 29.90 in 10.0 mi West 8.1 mph - N/A   Clear
8:53 PM 68.0 °F 39.9 °F 36% 29.93 in 10.0 mi WNW 4.6 mph - N/A   Clear
9:53 PM 64.0 °F 46.9 °F 54% 29.95 in 10.0 mi SW 4.6 mph - N/A   Clear
10:53 PM 63.0 °F 48.9 °F 60% 29.96 in 10.0 mi WSW 3.5 mph - N/A   Clear
11:53 PM 62.1 °F 48.9 °F 62% 29.97 in 10.0 mi Calm Calm - N/A   Clear